TimeMDT,TemperatureF,Dew PointF,Humidity,Sea Level PressureIn,VisibilityMPH,Wind Direction,Wind SpeedMPH,Gust SpeedMPH,PrecipitationIn,Events,Conditions,WindDirDegrees,DateUTC
12:53 AM,59.0,55.9,90,29.85,10.0,Calm,Calm,-,N/A,,Clear,0,2013-06-12 06:53:00
1:53 AM,59.0,55.0,87,29.90,10.0,North,6.9,-,N/A,,Scattered Clouds,350,2013-06-12 07:53:00
2:53 AM,59.0,55.0,87,29.91,10.0,Calm,Calm,-,N/A,,Partly Cloudy,0,2013-06-12 08:53:00
3:53 AM,55.9,54.0,93,29.92,10.0,SSW,5.8,-,N/A,,Clear,210,2013-06-12 09:53:00
4:53 AM,54.0,52.0,93,29.94,10.0,South,3.5,-,N/A,,Clear,190,2013-06-12 10:53:00
5:53 AM,55.9,53.1,90,29.98,10.0,SW,4.6,-,N/A,,Clear,220,2013-06-12 11:53:00
6:53 AM,60.1,54.0,80,29.99,10.0,SSW,4.6,-,N/A,,Clear,200,2013-06-12 12:53:00
7:53 AM,64.0,55.9,75,29.99,10.0,WNW,6.9,-,N/A,,Clear,300,2013-06-12 13:53:00
8:53 AM,66.9,57.9,73,30.01,10.0,WNW,9.2,-,N/A,,Clear,300,2013-06-12 14:53:00
9:42 AM,66.2,59.0,78,30.08,10.0,NNE,6.9,-,N/A,,Mostly Cloudy,30,2013-06-12 15:42:00
9:53 AM,68.0,60.1,76,30.03,10.0,North,10.4,-,N/A,,Scattered Clouds,10,2013-06-12 15:53:00
10:53 AM,68.0,57.9,70,30.07,10.0,NNE,8.1,-,N/A,,Partly Cloudy,30,2013-06-12 16:53:00
11:53 AM,68.0,57.9,70,30.09,10.0,NNE,13.8,23.0,N/A,,Partly Cloudy,30,2013-06-12 17:53:00
12:30 PM,66.2,55.4,68,30.15,10.0,NE,17.3,26.5,N/A,,Mostly Cloudy,40,2013-06-12 18:30:00
12:41 PM,64.4,55.4,73,30.15,10.0,NE,19.6,-,N/A,,Mostly Cloudy,40,2013-06-12 18:41:00
12:53 PM,66.9,57.0,70,30.12,10.0,NE,17.3,21.9,N/A,,Mostly Cloudy,40,2013-06-12 18:53:00
1:38 PM,66.2,55.4,68,30.14,10.0,NE,19.6,25.3,N/A,,Mostly Cloudy,50,2013-06-12 19:38:00
1:53 PM,66.9,55.9,68,30.11,10.0,NE,16.1,25.3,N/A,,Scattered Clouds,50,2013-06-12 19:53:00
2:34 PM,68.0,55.4,64,30.14,10.0,NNE,10.4,21.9,N/A,,Mostly Cloudy,30,2013-06-12 20:34:00
2:50 PM,69.8,55.4,60,30.14,10.0,ENE,11.5,-,N/A,,Mostly Cloudy,60,2013-06-12 20:50:00
2:53 PM,69.1,55.0,61,30.11,10.0,ENE,15.0,21.9,N/A,,Mostly Cloudy,60,2013-06-12 20:53:00
3:53 PM,69.1,55.9,63,30.11,10.0,ENE,13.8,17.3,N/A,,Mostly Cloudy,60,2013-06-12 21:53:00
4:53 PM,69.1,55.0,61,30.08,10.0,NE,13.8,-,N/A,,Clear,50,2013-06-12 22:53:00
5:53 PM,69.1,55.0,61,30.08,10.0,ENE,11.5,-,N/A,,Partly Cloudy,70,2013-06-12 23:53:00
6:53 PM,68.0,54.0,61,30.07,10.0,ENE,11.5,-,N/A,,Clear,70,2013-06-13 00:53:00
7:53 PM,64.9,55.0,70,30.08,10.0,East,9.2,-,N/A,,Clear,80,2013-06-13 01:53:00
8:53 PM,62.1,53.1,72,30.09,10.0,ESE,8.1,-,N/A,,Clear,110,2013-06-13 02:53:00
9:53 PM,57.9,52.0,81,30.09,10.0,East,6.9,-,N/A,,Clear,90,2013-06-13 03:53:00
10:53 PM,55.0,51.1,86,30.12,10.0,NE,4.6,-,N/A,,Clear,50,2013-06-13 04:53:00
11:53 PM,54.0,52.0,93,30.13,10.0,Calm,Calm,-,N/A,,Clear,0,2013-06-13 05:53:00